Date String (YYYY-MM-DD hh:mm:ss) UTC,Instrument flags,Ambient pressure (hPa),Sample flow (lpm),Bypass flow (lpm),Sample temperature (°C),Ambient temperature (°C),ASC tube jacket temperature (°C),LED temperature (°C),Box temperature (°C),Sample RH (%),Span deviation,Mass concentration (μg/m³),Mass concentration (μg/m³),Mass concentration (μg/m³)
DateTimeUTC,F1_M11,P_M11,Q1_M11,Q2_M11,T1_M11,T2_M11,T3_M11,T4_M11,T5_M11,U1_M11,ZSPAN_M11,X0_M11,X2_M11,X1_M11
2022-01-05 22:00:00,,0818.9,4.99,0.00,22.9,23.0,00.0,32.0,24.6,09.1,0001.5,0013.01,0004.99,0004.03
2022-01-05 22:01:00,,0819.0,5.00,0.00,23.0,23.7,00.0,32.0,25.0,09.0,0001.2,0012.11,0005.04,0004.04
2022-01-05 22:02:00,,0818.9,5.00,0.00,23.1,23.8,00.0,32.1,25.0,08.9,0001.1,0012.61,0005.07,0004.06
2022-01-05 22:03:00,,0818.9,4.98,0.00,23.1,23.5,00.0,32.1,24.9,08.9,0001.3,0012.62,0005.05,0004.08
2022-01-05 22:04:00,,0819.0,5.00,0.00,23.1,23.2,00.0,32.1,24.8,08.7,0001.4,0012.91,0005.09,0004.13
2022-01-05 22:05:00,,0819.0,5.01,0.00,23.0,22.9,00.0,32.1,24.7,08.6,0001.5,0012.97,0005.18,0004.18
2022-01-05 22:06:00,,0819.0,4.99,0.00,23.0,22.7,00.0,32.0,24.6,08.5,0001.6,0013.07,0005.23,0004.22
2022-01-05 22:07:00,,0819.1,5.00,0.00,22.9,22.5,00.0,32.0,24.5,08.4,0001.7,0012.78,0005.28,0004.26
2022-01-05 22:08:00,,0819.1,5.01,0.00,22.9,22.4,00.0,32.0,24.5,08.4,0001.7,0012.46,0005.33,0004.30
2022-01-05 22:09:00,,0819.2,5.00,0.00,23.0,23.0,00.0,32.0,24.7,08.3,0001.5,0012.17,0005.34,0004.34
2022-01-05 22:10:00,,0819.2,5.00,0.00,23.1,23.6,00.0,32.1,25.0,08.2,0001.7,0012.27,0005.35,0004.40
2022-01-05 22:11:00,,0819.3,4.99,0.00,23.2,23.8,00.0,32.1,25.1,08.1,0001.9,0011.89,0005.42,0004.45
2022-01-05 22:12:00,,0819.3,5.01,0.00,23.2,23.5,00.0,32.1,25.0,08.0,0002.0,0011.88,0005.40,0004.48
2022-01-05 22:13:00,,0819.4,5.00,0.00,23.2,23.1,00.0,32.1,24.9,07.9,0002.3,0011.36,0005.40,0004.50
2022-01-05 22:14:00,,0819.3,4.98,0.00,23.1,22.7,00.0,32.1,24.7,07.9,0002.6,0012.23,0005.43,0004.53
2022-01-05 22:15:00,,0819.3,5.01,0.00,23.0,22.5,00.0,32.0,24.5,08.0,0002.6,0012.40,0005.44,0004.54
2022-01-05 22:16:00,,0819.4,4.99,0.00,23.0,22.4,00.0,32.0,24.5,08.0,0002.6,0012.27,0005.40,0004.55
2022-01-05 22:17:00,,0819.4,5.00,0.00,22.9,22.3,00.0,32.0,24.5,08.0,0002.8,0012.31,0005.42,0004.57
2022-01-05 22:18:00,,0819.5,4.99,0.00,22.9,22.3,00.0,32.0,24.5,08.0,0002.7,0012.52,0005.44,0004.58
2022-01-05 22:19:00,,0819.4,5.00,0.00,23.0,22.7,00.0,32.0,24.7,08.0,0002.8,0012.90,0005.43,0004.59
2022-01-05 22:20:00,,0819.5,4.99,0.00,23.1,23.5,00.0,32.1,25.0,08.0,0002.8,0012.81,0005.40,0004.58
2022-01-05 22:21:00,,0819.6,5.00,0.00,23.2,23.4,00.0,32.1,25.0,07.9,0002.6,0012.25,0005.37,0004.57
2022-01-05 22:22:00,,0819.7,4.99,0.00,23.2,23.2,00.0,32.1,25.0,07.9,0002.2,0012.34,0005.34,0004.58
2022-01-05 22:23:00,,0819.9,5.01,0.00,23.2,22.9,00.0,32.1,24.9,07.9,0002.2,0012.58,0005.38,0004.59
2022-01-05 22:24:00,,0819.8,5.01,0.00,23.1,22.7,00.0,32.1,24.7,07.9,0002.0,0012.34,0005.39,0004.59
2022-01-05 22:25:00,,0819.7,4.99,0.00,23.0,22.4,00.0,32.1,24.6,08.0,0001.8,0011.68,0005.36,0004.59
2022-01-05 22:26:00,,0819.6,5.00,0.00,23.0,22.3,00.0,32.1,24.5,08.0,0002.1,0011.82,0005.37,0004.58
2022-01-05 22:27:00,,0819.9,5.00,0.00,22.9,22.1,00.0,32.0,24.4,08.0,0001.7,0011.82,0005.35,0004.58
2022-01-05 22:28:00,,0820.0,4.99,0.00,22.8,22.0,00.0,32.0,24.4,08.0,0001.3,0012.37,0005.33,0004.57
2022-01-05 22:29:00,,0820.0,4.99,0.00,22.9,22.5,00.0,32.0,24.6,08.0,0001.2,0012.44,0005.30,0004.56
2022-01-05 22:30:00,,0820.1,5.02,0.00,23.0,23.3,00.0,32.1,24.8,07.9,0001.1,0011.96,0005.29,0004.55
2022-01-05 22:31:00,,0820.2,4.99,0.00,23.1,23.6,00.0,32.1,25.0,07.9,0001.4,0012.38,0005.27,0004.55
2022-01-05 22:32:00,,0820.3,5.00,0.00,23.1,23.1,00.0,32.1,24.9,07.9,0001.6,0012.43,0005.28,0004.55
2022-01-05 22:33:00,,0820.4,5.02,0.00,23.1,22.8,00.0,32.1,24.7,07.9,0002.1,0012.28,0005.30,0004.53
2022-01-05 22:34:00,,0820.4,4.99,0.00,23.0,22.6,00.0,32.1,24.6,07.9,0002.1,0012.63,0005.33,0004.53
2022-01-05 22:35:00,,0820.5,5.01,0.00,22.9,22.3,00.0,32.1,24.4,08.0,0001.8,0012.63,0005.33,0004.54
2022-01-05 22:36:00,,0820.5,5.00,0.00,22.9,22.1,00.0,32.0,24.3,08.0,0001.8,0012.54,0005.39,0004.56
2022-01-05 22:37:00,,0820.5,5.00,0.00,22.8,21.9,00.0,32.0,24.2,08.0,0001.5,0012.49,0005.43,0004.60
2022-01-05 22:38:00,,0820.4,5.01,0.00,22.7,21.7,00.0,32.0,24.1,07.9,0001.6,0012.59,0005.46,0004.64
2022-01-05 22:39:00,,0820.3,4.99,0.00,22.6,21.6,00.0,31.9,24.0,07.9,0001.7,0012.21,0005.48,0004.67
2022-01-05 22:40:00,,0820.3,5.00,0.00,22.5,21.6,00.0,31.9,24.0,07.9,0002.0,0011.90,0005.49,0004.70
2022-01-05 22:41:00,,0820.3,5.01,0.00,22.6,22.2,00.0,31.9,24.2,07.8,0002.2,0012.08,0005.51,0004.72
2022-01-05 22:42:00,,0820.4,4.99,0.00,22.8,22.9,00.0,31.9,24.5,07.7,0002.0,0012.02,0005.60,0004.77
2022-01-05 22:43:00,,0820.5,5.01,0.00,22.9,23.1,00.0,31.9,24.6,07.6,0002.1,0012.27,0005.67,0004.82
2022-01-05 22:44:00,,0820.6,5.00,0.00,22.8,22.8,00.0,31.9,24.5,07.6,0001.9,0012.35,0005.68,0004.87
2022-01-05 22:45:00,,0820.7,5.01,0.00,22.8,22.4,00.0,31.9,24.3,07.6,0001.6,0011.69,0005.68,0004.90
2022-01-05 22:46:00,,0820.6,5.00,0.00,22.7,22.2,00.0,31.9,24.2,07.6,0001.9,0011.78,0005.72,0004.92
2022-01-05 22:47:00,,0820.7,5.00,0.00,22.6,21.9,00.0,31.8,24.0,07.6,0002.3,0012.32,0005.75,0004.93
2022-01-05 22:48:00,,0820.6,5.01,0.00,22.5,21.7,00.0,31.8,23.9,07.7,0002.3,0012.42,0005.76,0004.93
2022-01-05 22:49:00,,0820.6,5.00,0.00,22.4,21.5,00.0,31.8,23.8,07.7,0002.4,0012.25,0005.78,0004.92
2022-01-05 22:50:00,,0820.6,5.01,0.00,22.4,21.8,00.0,31.8,23.9,07.7,0002.5,0012.27,0005.81,0004.92
2022-01-05 22:51:00,,0820.7,4.99,0.00,22.5,22.5,00.0,31.8,24.2,07.6,0002.3,0012.39,0005.85,0004.93
2022-01-05 22:52:00,,0820.7,5.00,0.00,22.7,23.3,00.0,31.8,24.5,07.5,0002.2,0012.38,0005.89,0004.94
2022-01-05 22:53:00,,0820.7,5.00,0.00,22.8,23.5,00.0,31.8,24.6,07.5,0002.2,0012.20,0005.87,0004.92
2022-01-05 22:54:00,,0820.7,5.02,0.00,22.8,23.1,00.0,31.8,24.5,07.5,0001.9,0011.79,0005.87,0004.91
2022-01-05 22:55:00,,0820.7,5.00,0.00,22.7,22.7,00.0,31.8,24.3,07.5,0001.6,0011.76,0005.89,0004.89
2022-01-05 22:56:00,,0820.7,4.99,0.00,22.7,22.4,00.0,31.8,24.2,07.5,0002.0,0011.84,0005.91,0004.89
2022-01-05 22:57:00,,0820.7,5.01,0.00,22.6,22.1,00.0,31.8,24.0,07.5,0002.1,0011.92,0005.92,0004.90
2022-01-05 22:58:00,,0820.7,4.99,0.00,22.5,21.8,00.0,31.7,23.9,07.5,0001.6,0011.42,0005.91,0004.89
2022-01-05 22:59:00,,0820.8,5.01,0.00,22.4,21.6,00.0,31.7,23.8,07.5,0001.5,0011.05,0005.94,0004.92
